When you browse on this site, cookies collect data to enhance your experience and personalize the content and advertising you see.
Visit our Privacy Policy to learn more. By continuing to use the site, you agree to this use of cookies and data.
  • In France
  • List of Countries
  • For 7 days
  • Water Temperature
  • Satellite Maps
  • Weather Map
  • Weather Widgets
  • user-avatar
    Login

    Hourly Weather Nakhchivan

    Today, 26 April, Friday

    Time Temperature Precipitation Wind Pressure Humidity
    00:00 +12°C° 0 mm 1 mps 693 mmHg 46%
    01:00 +11°C° 0 mm 1 mps 693 mmHg 48%
    02:00 +11°C° 0 mm 1 mps 693 mmHg 50%
    03:00 +10°C° 0 mm 1 mps 693 mmHg 52%
    04:00 +10°C° 0 mm 1 mps 693 mmHg 52%
    05:00 +10°C° 0 mm 1 mps 693 mmHg 51%
    06:00 +10°C° 0 mm 1 mps 693 mmHg 51%
    07:00 +11°C° 0 mm 1 mps 693 mmHg 46%
    08:00 +12°C° 0 mm 1 mps 692 mmHg 42%
    09:00 +13°C° 0 mm 1 mps 692 mmHg 38%
    10:00 +14°C° 0 mm 1 mps 692 mmHg 34%
    11:00 +15°C° 0 mm 1 mps 692 mmHg 31%
    12:00 +16°C° 0 mm 1 mps 691 mmHg 27%
    13:00 +18°C° 0 mm 1 mps 691 mmHg 25%
    14:00 +18°C° 0 mm 2 mps 691 mmHg 23%
    15:00 +19°C° 0 mm 2 mps 691 mmHg 21%
    16:00 +18°C° 0 mm 3 mps 691 mmHg 22%
    17:00 +18°C° 0 mm 3 mps 690 mmHg 23%
    18:00 +18°C° 0 mm 3 mps 690 mmHg 24%
    19:00 +17°C° 0 mm 3 mps 691 mmHg 27%
    20:00 +16°C° 0 mm 3 mps 691 mmHg 31%
    21:00 +15°C° 0 mm 2 mps 691 mmHg 34%
    22:00 +14°C° 0 mm 2 mps 691 mmHg 36%
    23:00 +14°C° 0 mm 2 mps 691 mmHg 39%

    Tomorrow, 27 April, Saturday

    Time Temperature Precipitation Wind Pressure Humidity
    00:00 +13°C° 0 mm 2 mps 691 mmHg 41%
    01:00 +12°C° 0 mm 1 mps 691 mmHg 42%
    02:00 +12°C° 0 mm 1 mps 691 mmHg 44%
    03:00 +11°C° 0 mm 1 mps 691 mmHg 45%
    04:00 +11°C° 0 mm 1 mps 691 mmHg 45%
    05:00 +11°C° 0 mm 1 mps 691 mmHg 44%
    06:00 +11°C° 0 mm 1 mps 691 mmHg 44%
    07:00 +12°C° 0 mm 1 mps 691 mmHg 40%
    08:00 +14°C° 0 mm 1 mps 690 mmHg 35%
    09:00 +14°C° 0 mm 0 mps 690 mmHg 31%
    10:00 +16°C° 0 mm 1 mps 690 mmHg 29%
    11:00 +18°C° 0 mm 1 mps 690 mmHg 27%
    12:00 +19°C° 0 mm 1 mps 690 mmHg 24%
    13:00 +20°C° 0 mm 1 mps 690 mmHg 23%
    14:00 +20°C° 0 mm 1 mps 689 mmHg 21%
    15:00 +20°C° 0 mm 2 mps 689 mmHg 20%
    16:00 +20°C° 0 mm 2 mps 689 mmHg 20%
    17:00 +20°C° 0 mm 2 mps 689 mmHg 20%
    18:00 +20°C° 0 mm 2 mps 689 mmHg 20%
    19:00 +19°C° 0 mm 2 mps 689 mmHg 23%
    20:00 +18°C° 0 mm 2 mps 689 mmHg 26%
    21:00 +17°C° 0 mm 2 mps 690 mmHg 29%
    22:00 +16°C° 0 mm 1 mps 689 mmHg 31%
    23:00 +15°C° 0 mm 1 mps 689 mmHg 34%

    Day after tomorrow, 28 April, Sunday

    Time Temperature Precipitation Wind Pressure Humidity
    00:00 +15°C° 0 mm 1 mps 689 mmHg 36%
    01:00 +14°C° 0 mm 1 mps 689 mmHg 37%
    02:00 +13°C° 0 mm 1 mps 688 mmHg 38%
    03:00 +13°C° 0 mm 1 mps 688 mmHg 38%
    04:00 +13°C° 0 mm 1 mps 688 mmHg 38%
    05:00 +13°C° 0 mm 1 mps 688 mmHg 38%
    06:00 +13°C° 0 mm 1 mps 688 mmHg 38%
    07:00 +14°C° 0 mm 1 mps 688 mmHg 34%
    08:00 +16°C° 0 mm 1 mps 688 mmHg 30%
    09:00 +18°C° 0 mm 1 mps 688 mmHg 26%
    10:00 +19°C° 0 mm 1 mps 688 mmHg 25%
    11:00 +20°C° 0 mm 1 mps 687 mmHg 24%
    12:00 +20°C° 0 mm 2 mps 687 mmHg 23%
    13:00 +21°C° 0 mm 2 mps 687 mmHg 23%
    14:00 +21°C° 0 mm 2 mps 687 mmHg 22%
    15:00 +23°C° 0 mm 2 mps 686 mmHg 22%
    16:00 +23°C° 0 mm 2 mps 686 mmHg 23%
    17:00 +23°C° 0 mm 2 mps 686 mmHg 24%
    18:00 +21°C° 0 mm 2 mps 686 mmHg 25%
    19:00 +20°C° 0.1 mm 2 mps 687 mmHg 28%
    20:00 +20°C° 0.1 mm 1 mps 687 mmHg 31%
    21:00 +19°C° 0.1 mm 1 mps 687 mmHg 34%
    22:00 +19°C° 0 mm 1 mps 687 mmHg 35%
    23:00 +18°C° 0 mm 1 mps 687 mmHg 37%

    29 April, Monday

    Time Temperature Precipitation Wind Pressure Humidity
    00:00 +18°C° 0 mm 1 mps 687 mmHg 38%
    01:00 +16°C° 0 mm 1 mps 687 mmHg 39%
    02:00 +16°C° 0 mm 1 mps 687 mmHg 41%
    03:00 +15°C° 0 mm 1 mps 687 mmHg 42%
    04:00 +15°C° 0 mm 1 mps 687 mmHg 43%
    05:00 +15°C° 0 mm 1 mps 687 mmHg 43%
    06:00 +15°C° 0 mm 1 mps 687 mmHg 44%
    07:00 +18°C° 0 mm 1 mps 687 mmHg 41%
    08:00 +19°C° 0 mm 1 mps 688 mmHg 37%
    09:00 +20°C° 0 mm 1 mps 688 mmHg 34%
    10:00 +21°C° 0 mm 1 mps 688 mmHg 33%
    11:00 +23°C° 0 mm 2 mps 687 mmHg 31%
    12:00 +24°C° 0 mm 2 mps 687 mmHg 29%
    13:00 +24°C° 0.1 mm 2 mps 687 mmHg 28%
    14:00 +25°C° 0.1 mm 2 mps 687 mmHg 27%
    15:00 +25°C° 0.1 mm 1 mps 686 mmHg 26%
    16:00 +25°C° 0.1 mm 2 mps 686 mmHg 27%
    17:00 +24°C° 0.1 mm 2 mps 686 mmHg 28%
    18:00 +24°C° 0.1 mm 2 mps 686 mmHg 30%
    19:00 +23°C° 0.1 mm 2 mps 686 mmHg 33%
    20:00 +21°C° 0.1 mm 2 mps 687 mmHg 36%
    21:00 +20°C° 0.1 mm 2 mps 687 mmHg 39%
    22:00 +19°C° 0.1 mm 2 mps 687 mmHg 41%
    23:00 +20°C° 0.1 mm 1 mps 687 mmHg 43%

    30 April, Tuesday

    Time Temperature Precipitation Wind Pressure Humidity
    00:00 +19°C° 0.1 mm 1 mps 687 mmHg 45%
    01:00 +19°C° 0.1 mm 1 mps 687 mmHg 46%
    02:00 +18°C° 0.1 mm 1 mps 686 mmHg 47%
    03:00 +18°C° 0.1 mm 1 mps 686 mmHg 47%
    04:00 +18°C° 0 mm 1 mps 686 mmHg 47%
    05:00 +18°C° 0 mm 1 mps 686 mmHg 47%
    06:00 +18°C° 0 mm 1 mps 687 mmHg 47%
    07:00 +18°C° 0 mm 2 mps 687 mmHg 44%
    08:00 +19°C° 0 mm 2 mps 687 mmHg 40%
    09:00 +21°C° 0 mm 2 mps 687 mmHg 36%
    10:00 +23°C° 0 mm 2 mps 687 mmHg 32%
    11:00 +24°C° 0 mm 2 mps 687 mmHg 27%
    12:00 +25°C° 0 mm 2 mps 686 mmHg 23%
    13:00 +26°C° 0 mm 4 mps 686 mmHg 22%
    14:00 +27°C° 0 mm 5 mps 686 mmHg 20%
    15:00 +27°C° 0 mm 6 mps 686 mmHg 19%
    16:00 +26°C° 0.2 mm 5 mps 686 mmHg 22%
    17:00 +25°C° 0.2 mm 5 mps 686 mmHg 25%
    18:00 +25°C° 0.2 mm 4 mps 686 mmHg 28%
    19:00 +22°C° 0.4 mm 3 mps 686 mmHg 32%
    20:00 +21°C° 0.4 mm 2 mps 687 mmHg 37%
    21:00 +21°C° 0.4 mm 1 mps 687 mmHg 41%
    22:00 +20°C° 0 mm 1 mps 687 mmHg 41%
    23:00 +20°C° 0 mm 1 mps 687 mmHg 41%

    1 May, Wednesday

    Time Temperature Precipitation Wind Pressure Humidity
    00:00 +18°C° 0 mm 2 mps 686 mmHg 41%
    01:00 +18°C° 0 mm 1 mps 686 mmHg 42%
    02:00 +18°C° 0 mm 1 mps 686 mmHg 43%
    03:00 +16°C° 0 mm 1 mps 686 mmHg 44%
    04:00 +16°C° 0 mm 1 mps 686 mmHg 44%
    05:00 +16°C° 0 mm 1 mps 686 mmHg 44%
    06:00 +16°C° 0 mm 1 mps 686 mmHg 44%
    07:00 +19°C° 0 mm 1 mps 686 mmHg 39%
    08:00 +20°C° 0 mm 1 mps 686 mmHg 35%
    09:00 +22°C° 0 mm 1 mps 686 mmHg 30%
    10:00 +23°C° 0 mm 2 mps 686 mmHg 27%
    11:00 +24°C° 0 mm 2 mps 685 mmHg 24%
    12:00 +26°C° 0 mm 2 mps 685 mmHg 21%
    13:00 +26°C° 0 mm 2 mps 685 mmHg 20%
    14:00 +27°C° 0 mm 3 mps 684 mmHg 18%
    15:00 +28°C° 0 mm 4 mps 684 mmHg 17%
    16:00 +27°C° 0 mm 4 mps 684 mmHg 18%
    17:00 +27°C° 0 mm 4 mps 684 mmHg 19%
    18:00 +26°C° 0 mm 4 mps 684 mmHg 20%
    19:00 +25°C° 0 mm 3 mps 684 mmHg 21%
    20:00 +24°C° 0 mm 3 mps 684 mmHg 22%
    21:00 +24°C° 0 mm 3 mps 685 mmHg 24%
    22:00 +22°C° 0 mm 3 mps 684 mmHg 26%
    23:00 +21°C° 0 mm 2 mps 684 mmHg 29%
    Show more